{"data":{"norad_id":63742,"epoch":"2026-05-25T04:13:00.105024Z","epoch_age_seconds":60171,"freshness":"FRESH","line1":"1 63742U 25088U   26145.17569566  .00001643  00000+0  26387-3 0  9990","line2":"2 63742  51.9017 113.4169 0002980  82.6742 277.4558 14.76578045 58930","mean_motion":14.76578045,"eccentricity":0.000298,"inclination_deg":51.9017,"raan_deg":113.4169,"arg_perigee_deg":82.6742,"mean_anomaly_deg":277.4558,"bstar":0.00026387,"rev_number":5893,"period_min":97.522782820464,"perigee_km":638.05499008306,"apogee_km":642.23788701243,"semimajor_km":7018.2834385477,"source":"CELESTRAK","updated_at":"2026-05-25T13:38:03.929437Z"}}